Regional Weather Roundup
Issued by NWS

Home | Current Version | Previous Version | Graphics & Text | Print | Product List | Glossary On
Versions: 1 2 3 4 5 6 7 8 9 10 11 12 13 14 15 16 17 18 19 20 21 22 23 24 25 26 27
000
ASUS45 KBOI 191910
RWRID

IDAHO REGIONAL WEATHER ROUNDUP
NATIONAL WEATHER SERVICE BOISE ID
1200 PM MST SUN NOV 19 2017

NOTE: "FAIR" INDICATES FEW OR NO CLOUDS BELOW 12000 FEET
WITH NO SIGNIFICANT WEATHER AND/OR OBSTRUCTIONS TO VISIBILITY

IDZ012-014-192000-
SOUTHWEST IDAHO


CITY           SKY/WX    TMP DP  RH WIND       PRES   REMARKS
BOISE          SUNNY     42  24  49 SW8       30.17F
CALDWELL       SUNNY     43  27  53 E8        30.18F
MOUNTAIN HOME  SUNNY     41  27  56 SE22      30.15F
$$

IDZ016-017-192000-
SOUTHCENTRAL IDAHO


CITY           SKY/WX    TMP DP  RH WIND       PRES   REMARKS
BURLEY         SUNNY     43  23  45 E5        30.15F
JEROME         NOT AVBL
TWIN FALLS     SUNNY     37  27  67 NE5       30.17F WCI  33
$$

IDZ019>023-192000-
SOUTHEAST IDAHO


CITY           SKY/WX    TMP DP  RH WIND       PRES   REMARKS
IDAHO FALLS    CLOUDY    33  23  66 CALM      30.22F
POCATELLO      SUNNY     39  22  50 CALM      30.20F
REXBURG        CLOUDY    33  21  61 N5        30.21F WCI  29
$$

IDZ006-010-011-018-031-032-192000-
CENTRAL IDAHO MOUNTAINS


CITY           SKY/WX    TMP DP  RH WIND       PRES   REMARKS
MCCALL         MOSUNNY   29  21  72 E3        30.10F
HAILEY         SUNNY     32  14  47 NW7       30.20F WCI  26
STANLEY          N/A     17  12  80 CALM      30.15F
SALMON         SUNNY     36  20  52 CALM      30.11F
CHALLIS        SUNNY     32  17  54 SE3       30.13F
$$

IDZ002-004-006-007-026-192000-
NORTHERN IDAHO


CITY           SKY/WX    TMP DP  RH WIND       PRES   REMARKS
LEWISTON       CLOUDY    50  27  40 S9        30.00F
LOWELL           N/A     40  32  73 CALM      30.12F
COEUR D`ALENE  CLOUDY    42  28  57 S13       29.97F
MULLAN PASS    CLOUDY    27  20  75 VRB6G17   29.91F WCI  20
$$




USA.gov is the U.S. government's official web portal to all federal, state and local government web resources and services.